Dewpoint
34 34 34 34 34 35 35 35 37 38 39 41 42 43 45 47 49 52 53 53 54 59
33 34 33 33 33 33 33 34 35 36 37 39 40 41 43 45 47 49 53 54 54 58
33 33 33 33 32 32 32 33 34 34 35 36 37 38 40 41 43 45 48 54 55 56
32 33 32 32 32 32 32 32 32 33 34 34 35 36 37 38 39 40 43 53 55 56
32 32 31 30 30 30 30 31 31 32 32 33 33 34 34 35 37 39 41 45 53 55
30 30 30 30 28 28 29 29 30 30 31 32 33 32 33 35 36 37 40 43 47 55
29 29 29 29 29 28 28 27 27 29 30 32 32 32 32 33 33 34 35 38 39 41
27 27 27 27 26 26 26 26 26 27 28 31 31 32 31 30 31 31 32 32 34 36
24 23 24 24 24 23 23 24 25 26 26 28 30 33 32 30 29 29 29 29 30 32
24 23 22 22 21 22 22 23 24 25 25 26 28 31 30 30 29 28 28 28 29 29
23 22 21 21 20 20 20 21 23 23 23 24 27 29 28 28 28 27 28 28 29 28
23 21 20 19 18 19 19 19 20 24 23 22 23 26 27 25 25 25 25 26 28 28
23 21 19 19 19 19 14 19 20 20 22 23 22 24 25 25 23 22 23 24 25 27
24 22 21 19 19 19 17 18 18 17 18 20 22 21 23 23 22 21 21 21 22 25
Lifted_Index
8 8 7 7 7 7 7 6 6 6 6 6 7 7 6 6 5 4 4 4 3 2
9 8 8 7 7 7 7 7 6 6 6 6 6 7 6 6 5 4 3 3 3 2
9 9 9 8 8 8 8 8 7 7 6 6 6 7 6 6 5 4 3 2 2 2
10 10 10 10 10 10 10 10 10 9 8 7 7 6 6 5 4 3 3 2 2 2
11 11 11 11 11 12 12 12 12 11 10 8 7 7 6 6 4 3 2 2 2 2
11 11 11 12 12 13 13 13 13 12 11 10 9 8 7 6 5 4 3 2 2 2
12 12 12 13 14 14 14 14 14 13 12 11 10 9 8 7 6 5 4 3 3 3
13 13 14 14 15 15 15 15 14 14 13 12 12 11 10 9 7 6 5 5 4 4
15 15 15 15 15 16 16 15 15 14 13 12 13 13 12 11 10 9 8 7 6 6
15 15 16 16 16 16 16 16 16 15 14 14 14 15 14 14 13 12 11 10 10 9
15 15 15 16 16 16 16 17 17 17 17 17 17 17 17 16 15 14 14 14 13 13
15 15 15 15 15 16 16 16 17 17 18 18 19 19 19 17 16 15 15 15 15 15
15 15 15 16 16 16 16 16 17 17 18 18 19 19 19 18 16 15 15 16 16 16
15 16 16 16 16 16 16 16 17 17 18 19 19 19 19 19 17 16 16 15 16 17